This demonstration page uses our WeatherBlox Daily Observations layout. Learn more.

Left ArrowRight Arrow

40.92945, -100.16068

Hourly Observations for January 2, 2021

Temp ( °F °C ) Dew Point ( °F °C ) Humidity (%) Winds ( mph kmh ) Pressure ( in mb ) Visibility ( mi km ) Precip ( " mm )
12:15 am 00:15 Clear 22 -5.7 20 -6.9 91 91 WNW 10 17 30.26 1025 10 16.0934 0 0
12:35 am 00:35 Clear 22 -5.7 20 -6.9 91 91 WNW 9 15 30.26 1025 10 16.0934 0 0
12:55 am 00:55 Clear 21 -6 19 -7.2 91 91 WNW 9 15 30.26 1025 10 16.0934 0 0
1:15 am 01:15 Clear 20 -6.5 18 -7.7 91 91 WNW 7 11 30.26 1025 10 16.0934 0 0
1:35 am 01:35 Clear 20 -6.8 18 -7.8 93 93 WNW 8 13 30.27 1025 10 16.0934 0 0
1:55 am 01:55 Clear 19 -7.3 17 -8.4 92 92 WNW 7 11 30.27 1025 10 16.0934 0 0
2:15 am 02:15 Clear 18 -8 16 -8.9 93 93 WNW 7 11 30.27 1025 10 16.0934 0 0
2:35 am 02:35 Clear 17 -8.1 16 -9.1 93 93 WNW 8 13 30.27 1025 10 16.0934 0 0
2:55 am 02:55 Clear 17 -8.3 15 -9.5 91 91 W 6 9 30.28 1025 10 16.0934 0 0
3:15 am 03:15 Clear 16 -9 14 -10.1 92 92 WNW 8 13 30.28 1025 10 16.0934 0 0
3:35 am 03:35 Clear 15 -9.4 13 -10.4 93 93 WNW 8 13 30.28 1026 10 16.0934 0 0
3:55 am 03:55 Clear 15 -9.2 13 -10.3 92 92 WNW 7 11 30.27 1025 10 16.0934 0 0
4:15 am 04:15 Clear 14 -10 12 -11.1 92 92 WNW 7 11 30.28 1025 10 16.0934 0 0
4:35 am 04:35 Clear 14 -9.9 12 -11.3 90 90 W 5 7 30.27 1025 10 16.0934 0 0
4:55 am 04:55 Clear 14 -9.9 12 -11.1 91 91 WNW 8 13 30.26 1025 10 16.0934 0 0
5:15 am 05:15 Clear 15 -9.5 13 -10.6 92 92 WNW 7 11 30.26 1025 10 16.0934 0 0
5:35 am 05:35 Clear 15 -9.5 13 -10.7 91 91 WNW 6 9 30.26 1025 10 16.0934 0 0
5:55 am 05:55 Clear 15 -9.6 12 -10.9 90 90 W 6 9 30.25 1024 10 16.0934 0 0
6:15 am 06:15 Clear 14 -10.2 11 -11.6 90 90 W 6 9 30.25 1024 10 16.0934 0 0
6:35 am 06:35 Clear 13 -10.4 11 -11.8 90 90 W 6 9 30.25 1025 10 16.0934 0 0
6:55 am 06:55 Clear 13 -10.7 10 -12.1 90 90 W 5 7 30.25 1024 10 16.0934 0 0
7:15 am 07:15 Clear 13 -10.4 11 -11.7 90 90 W 6 9 30.24 1024 10 16.0934 0 0
7:35 am 07:35 Clear 14 -10.2 11 -11.5 90 90 WSW 3 6 30.24 1024 10 16.0934 0 0
7:55 am 07:55 Clear 13 -10.7 10 -12.1 90 90 W 5 7 30.25 1024 10 16.0934 0 0
8:15 am 08:15 Sunny 13 -10.3 11 -11.7 90 90 W 5 7 30.24 1024 10 16.0934 0 0
8:35 am 08:35 Sunny 11 -11.5 9 -12.9 89 89 Calm 30.26 1025 10 16.0934 0 0
8:55 am 08:55 Sunny 13 -10.6 11 -11.8 91 91 Calm 30.25 1024 10 16.0934 0 0
9:15 am 09:15 Sunny 13 -10.6 10 -12.1 89 89 W 5 7 30.25 1024 10 16.0934 0 0
9:35 am 09:35 Sunny 15 -9.5 13 -10.8 90 90 W 3 6 30.24 1024 10 16.0934 0 0
9:55 am 09:55 Sunny 18 -7.7 16 -9 91 91 Calm 30.22 1023 10 16.0934 0 0
10:15 am 10:15 Sunny 21 -6.3 19 -7.5 91 91 Calm 30.2 1023 10 16.0934 0 0
10:35 am 10:35 Sunny 23 -5.2 20 -6.6 90 90 Calm 30.19 1022 10 16.0934 0 0
10:55 am 10:55 Sunny 24 -4.6 21 -6 90 90 Calm 30.17 1022 10 16.0934 0 0
11:15 am 11:15 Sunny 25 -4.1 22 -5.7 89 89 Calm 30.16 1021 10 16.0934 0 0
11:35 am 11:35 Sunny 26 -3.2 22 -5.5 84 84 Calm 30.13 1020 10 16.0934 0 0
11:55 am 11:55 Sunny 28 -2.4 23 -4.9 83 83 Calm 30.11 1020 10 16.0934 0 0
12:15 pm 12:15 Sunny 29 -1.4 24 -4.2 81 81 Calm 30.09 1019 10 16.0934 0 0
12:35 pm 12:35 Sunny 31 -0.6 25 -4 78 78 Calm 30.06 1018 10 16.0934 0 0
12:55 pm 12:55 Sunny 32 0 26 -3.5 78 78 Calm 30.05 1017 10 16.0934 0 0
1:15 pm 13:15 Sunny 32 0.2 26 -3.5 76 76 Calm 30.02 1017 10 16.0934 0 0
1:35 pm 13:35 Sunny 38 3.5 28 -2 68 68 SSW 6 9 29.98 1015 10 16.0934 0 0
1:55 pm 13:55 Sunny 40 4.7 26 -3.1 57 57 SSW 10 17 29.97 1015 10 16.0934 0 0
2:15 pm 14:15 Sunny 41 4.8 28 -2.1 61 61 S 5 7 29.96 1015 10 16.0934 0 0
2:35 pm 14:35 Sunny 40 4.4 29 -1.9 64 64 S 7 11 29.95 1014 10 16.0934 0 0
2:55 pm 14:55 Sunny 40 4.2 29 -1.8 65 65 S 8 13 29.96 1014 10 16.0934 0 0
3:15 pm 15:15 Sunny 40 4.4 29 -1.7 65 65 S 7 11 29.95 1014 10 16.0934 0 0
3:35 pm 15:35 Sunny 39 3.9 29 -1.5 68 68 S 8 13 29.95 1014 10 16.0934 0 0
3:55 pm 15:55 Sunny 39 4.1 29 -1.5 67 67 S 6 9 29.95 1014 10 16.0934 0 0
4:15 pm 16:15 Sunny 38 3.5 29 -1.6 70 70 SSE 6 9 29.95 1014 10 16.0934 0 0
4:35 pm 16:35 Sunny 37 3 29 -1.5 73 73 SSE 7 11 29.96 1014 10 16.0934 0 0
4:55 pm 16:55 Sunny 37 2.7 29 -1.6 74 74 S 6 9 29.96 1015 10 16.0934 0 0
5:15 pm 17:15 Sunny 36 2.3 29 -1.8 75 75 S 6 9 29.96 1015 10 16.0934 0 0
5:35 pm 17:35 Clear 35 1.7 29 -1.8 78 78 SSE 3 6 29.97 1015 10 16.0934 0 0
5:55 pm 17:55 Clear 32 0.2 28 -2.5 82 82 Calm 29.98 1015 10 16.0934 0 0
6:15 pm 18:15 Clear 32 0.2 28 -2.2 84 84 Calm 29.99 1016 10 16.0934 0 0
6:35 pm 18:35 Clear 31 -0.4 28 -2.2 88 88 SE 3 6 30 1016 10 16.0934 0 0
6:55 pm 18:55 Clear 27 -2.8 24 -4.2 90 90 Calm 30.02 1017 10 16.0934 0 0
7:15 pm 19:15 Clear 27 -2.6 25 -4 90 90 ESE 3 6 30.02 1017 10 16.0934 0 0
7:35 pm 19:35 Clear 29 -1.5 27 -3 90 90 SSE 6 9 30.01 1016 10 16.0934 0 0
7:55 pm 19:55 Clear 27 -2.7 25 -4.1 90 90 SSE 7 11 30.01 1016 10 16.0934 0 0
8:15 pm 20:15 Clear 28 -2 26 -3.4 90 90 S 8 13 30 1016 10 16.0934 0 0
8:35 pm 20:35 Clear 29 -1.7 26 -3.2 90 90 SSE 6 9 29.99 1016 10 16.0934 0 0
8:55 pm 20:55 Clear 26 -3.4 24 -4.7 91 91 Calm 30.01 1016 10 16.0934 0 0
9:15 pm 21:15 Clear 22 -5.8 20 -6.9 92 92 SSE 3 6 30.04 1017 10 16.0934 0 0
9:35 pm 21:35 Clear 20 -6.4 19 -7.4 93 93 Calm 30.03 1017 10 16.0934 0 0
9:55 pm 21:55 Clear 22 -5.7 21 -6.2 96 96 Calm 30.02 1017 10 16.0934 0 0
10:15 pm 22:15 Clear 25 -4 24 -4.7 95 95 SE 3 6 29.99 1015 10 16.0934 0 0
10:35 pm 22:35 Clear 27 -2.7 24 -4.2 90 90 SSE 3 6 29.97 1015 10 16.0934 0 0
10:55 pm 22:55 Clear 23 -5 21 -5.9 93 93 Calm 30 1016 10 16.0934 0 0
11:15 pm 23:15 Clear 22 -5.4 20 -6.9 89 89 SSW 3 6 29.99 1016 10 16.0934 0 0
11:35 pm 23:35 Clear 25 -4.1 23 -4.9 94 94 SW 7 11 29.98 1015 10 16.0934 0 0
11:55 pm 23:55 Clear 25 -3.7 22 -5.5 87 87 WNW 6 9 29.97 1015 10 16.0934 0 0

Powered by AerisWeather